Regional Weather Roundup
Issued by NWS Wakefield, VA

Home | Current Version | Previous Version | Graphics & Text | Print | Product List | Glossary On
Versions: 1 2 3 4 5 6 7 8 9 10 11 12 13 14 15 16 17 18 19 20 21 22 23 24 25 26 27
000
ASUS41 KAKQ 201715
RWRAKQ

REGIONAL WEATHER ROUNDUP
NATIONAL WEATHER SERVICE WAKEFIELD VA
1200 PM EST MON FEB 20 2017

Note: "fair" indicates few or no clouds below 12,000 feet with no
significant weather and/or obstructions to visibility. * = Denotes
station may not report precipitation (e.g., rain,snow,etc.),
thunder or fog.

VAZ042-051-052>054-056-201800-
NORTHERN VIRGINIA

CITY           SKY/WX    TMP DP  RH WIND       PRES   REMARKS
WASH NATIONAL  PTSUNNY   64  37  36 NW12G22   30.24F
DULLES         PTSUNNY   61  36  39 N16G23    30.25S
FORT BELVOIR   MOSUNNY   63  38  39 NW12G18   30.23F
QUANTICO       PTSUNNY   64  41  42 N8G24     30.25F
FREDERICKSBRG* SUNNY     64  44  48 NW9       30.23F
STAFFORD*      MOSUNNY   64  41  44 NW9G18    30.28S
WARRENTON      PTSUNNY   65  34  30 N12       30.24F
CULPEPER*      SUNNY     66  40  38 N10       30.24F
MANASSAS*      MOSUNNY   64  41  42 NW16      30.25S
LEESBURG*      MOSUNNY   61  41  48 NE13G18   30.26F
WINCHESTER     SUNNY     59  37  44 NW10G20   30.25S
FRONT ROYAL*   SUNNY     61  39  44 NW6       30.24F
LURAY*         SUNNY     63  41  45 E3        30.24F
$$

VAZ048-049-060>072-079>083-201800-
CENTRAL AND SOUTH CENTRAL VIRGINIA

CITY           SKY/WX    TMP DP  RH WIND       PRES   REMARKS
RICHMOND       MOSUNNY   65  41  41 NE9       30.23F
CHESTERFIELD*  FAIR      66  32  28 N9        30.25F
PETERSBURG*    SUNNY     66  35  30 NE8G17    30.23F
HANOVER        SUNNY     65  38  36 VRB7      30.25F
TAPPAHANNOCK*  SUNNY     63  27  25 N9G16     30.24F
QUINTON*       FAIR      63  42  46 N7G20     30.23F
CHARLOTTSVILLE SUNNY     68  32  26 SE3       30.23F
GORDONSVILLE*  SUNNY     64  37  36 CALM      30.23F
ORANGE*        SUNNY     63  37  39 CALM      30.25F
LOUISA*        SUNNY     68  43  40 N5        30.23S
BUMPASS*       FAIR      64  39  40 NW6       30.24F
FARMVILLE*     SUNNY     65  40  40 CALM      30.22F
CREWE*         FAIR      65  42  41 SE5       30.23F
FORT PICKETT*  FAIR      64  29  26 N6        30.23F
CHASE CITY*    FAIR      65  37  36 S3        30.23F
CLARKSVILLE*   FAIR      63  41  45 E5        30.23F
SOUTH HILL*    SUNNY     65  40  40 CALM      30.28F
LAWRENCEVILLE* FAIR      67  37  33 NE6       30.22F
EMPORIA*       SUNNY     66  37  34 NW9       30.24F
$$

VAZ088>098-201800-
SOUTHEAST VIRGINIA

CITY           SKY/WX    TMP DP  RH WIND       PRES   REMARKS
NORFOLK        SUNNY     59  39  47 N15G22    30.23S
VIRGINIA BEACH MOSUNNY   62  41  46 N9        30.22S
NORFOLK NAVAL  NOT AVBL
WEST POINT*    SUNNY     65  38  36 NW5       30.24F
SALUDA*        FAIR      62  41  45 N7        30.22F
NEWPORT NEWS   SUNNY     65  39  38 NE10      30.22F
LANGLEY AFB    SUNNY     62  36  37 NE15      30.22S
FORT EUSTIS    SUNNY     67  37  33 N9        30.20F
WILLIAMSBURG*  SUNNY     72  43  35 NE6       30.23F
HR EXEC AP*    FAIR      64  37  36 NE8       30.21S
FRANKLIN*      SUNNY     66  35  31 N9        30.23F
US460-WAKEFLD  SUNNY     65  38  36 N8        30.23F
$$

VAZ020-022-025-037-045-201800-
WEST CENTRAL AND SOUTHWEST VIRGINIA

CITY           SKY/WX    TMP DP  RH WIND       PRES   REMARKS
STAUNTON*      SUNNY     59  37  42 CALM      30.25F
WAYNESBORO*    SUNNY     61  36  39 N6        30.25S
HOT SPRINGS VA SUNNY     59  14  17 CALM      30.26F
LYNCHBURG      SUNNY     65  30  27 SW3       30.23F
DANVILLE       SUNNY     65  38  36 VRB6      30.22F
SOUTH BOSTON*  FAIR      65  35  33 CALM      30.23F
MARTINSVILLE   SUNNY     67  32  27 S3        30.24F
ROANOKE        SUNNY     64  38  38 CALM      30.23F
BLACKSBURG     CLOUDY    61  39  44 NW3       30.27F
DUBLIN*        SUNNY     62  40  43 CALM      30.26S
MARION*        SUNNY     67  25  20 NE6       30.25F
HILLSVILLE*    SUNNY     62  32  33 CALM      30.24S
RICHLANDS*     FAIR      61  39  44 N5        30.23F
WISE*          SUNNY     64  34  32 CALM      30.24F
ABINGDON*      SUNNY     64  40  41 E7        30.23F
$$

MDZ021>025-VAZ099-100-201800-
SOUTHERN MARYLAND AND THE DELMARVA PENINSULA

CITY           SKY/WX    TMP DP  RH WIND       PRES   REMARKS
PATUXENT RIVER SUNNY     58  38  47 NE13      30.24S
BAY BRIDGE APT SUNNY     55  34  44 N9        30.25S
LEONARDTOWN    SUNNY     59  34  38 NE6       30.25S
DOVER          SUNNY     57  37  48 NW17      30.20F
GEORGETOWN     SUNNY     59  32  36 N9        30.21F
EASTON         MOSUNNY   59  30  33 N10G17    30.26F
CAMBRIDGE      NOT AVBL
SALISBURY      SUNNY     61  33  35 N16G22    30.20F
OCEAN CITY     SUNNY     60  35  39 MISG      30.20F
WALLOPS ISLAND SUNNY     61  33  35 NW8       30.21F
ACCOMACK*      SUNNY     61  37  40 NW10G18   30.21F
$$

NCZ012>017-030>032-201800-
NORTH CENTRAL AND EASTERN NORTH CAROLINA

CITY           SKY/WX    TMP DP  RH WIND       PRES   REMARKS
ROANOKE RAPIDS FAIR      64  41  42 NE8       30.23F
RALEIGH        PTSUNNY   68  37  32 NE5       30.23F
ELIZABETH CITY SUNNY     63  40  42 NE13      30.22S
AHOSKIE*         N/A     65  36  33 N9        30.22F
EDENTON*       SUNNY     67  39  34 NE12      30.22S
CURRITUCK*     SUNNY     60  40  47 N17       30.23S
KILL DEVIL HLS NOT AVBL
MANTEO         SUNNY     58  41  53 NE15      30.22S
CAPE HATTERAS  SUNNY     59  45  59 N9G20     30.18F HAZE
TARBORO*       NOT AVBL
GOLDSBORO      SUNNY     69  36  30 NE9       30.19F
WASHINGTON     SUNNY     67  37  33 E9        30.21F
GREENVILLE     NOT AVBL
NEW BERN       SUNNY     67  40  37 N9        30.21S
WILMINGTON     SUNNY     72  44  36 NE6       30.18F
$$

VAZ048-201800-
ELSEWHERE

CITY           SKY/WX    TMP DP  RH WIND       PRES   REMARKS
HARRISBURG PA  MOSUNNY   55  31  39 N6        30.26S
BALTIMORE      MOSUNNY   61  32  33 NW8       30.23S
ANNAPOLIS      SUNNY     57  33  40 N7        30.24F
ANDREWS AFB    MOSUNNY   62  35  35 NW12      30.22F
PHILADELPHIA   MOSUNNY   54  30  40 NW10G21   30.23F
HENDERSON NC   SUNNY     63  38  40 NE5       30.24F
GREENSBORO     MOSUNNY   66  37  34 VRB3      30.22F
ROCKY MOUNT    SUNNY     68  36  30 NE10      30.22F
$$

VAZ100-201800-
MARINE

STATION/POSITION TIME  TEMP    WIND        PRES    WAVE   SWELL
                       AIR SEA DIR/SP/G            HT/PER HT/PER
                 (UTC) (F)     (DEG/KT/KT) (MB)    (FT/S) (FT/S)
CAPE MAY NJ      1648   47 41  310/  9/ 12 1022.4F
LEWES DE         1648   47 42  330/ 10/ 11 1023.0F
OCEAN-CITY-INLET 1648   53 44   70/  7/ 12 1023.2F
WACHAPREAGUE VA  1642   61 49  330/  6/ 10 1023.2S
THOMAS POINT MD  1700   49 40   40/ 10/ 11   N/A
GOOSES REEF MD   1700   48 43   80/  6/  8 1024.6
COVE POINT MD    1642   48     360/  3/  6 1024.5F
SOLOMONS ISLAND  1642   55 43   30/  9/ 12   N/A
BISHOPS HEAD MD  1648   58 45   10/  7/  9 1023.7F
PINEY POINT MD   1648          320/ 10/ 11   N/A
POTOMAC MD       1700   52 43   30/ 12/ 14 1022.9
CAMBRIDGE MD     1648   55 41  310/ 11/ 13 1022.9F
LEWISETTA VA     1642   57 45   50/  5/  7 1023.5F
RAPPAHANNOCK LGT 1648          340/ 13/ 13 1024.1F
YORK RVR RNG VA  1642   55      50/  8/ 12 1023.1R
YORKTOWN VA      1642   60 48  360/  9/ 11 1023.3S
JAMESTOWN VA     1700   62 49  330/  8/ 12   N/A     0
DOMINION TERM VA 1642   62      60/  3/  5 1023.6S
KIPTOPEKE VA     1648      46   10/ 12/ 14   N/A
CHES BAY BRIDGE  1642   50 46   10/ 11/ 12 1023.7S
CAPE HENRY VA    1642   50     340/ 13/ 14   N/A
WILLOUBY STN VA  1642   54      30/ 14/ 15 1024.7R
S CRANEY ISL VA  1642   57      40/ 11/ 14 1023.4S
CAPE HENRY BUOY  1642      48                N/A     1/ 8
OFFSHORE WE BUOY 1651      48                N/A     1/ 7
64NM E OF VA BCH 1650   51 51  360/ 10/ 12 1022.2F   3/ 5   2/ 5
DUCK PIER NC     1642   50 49   20/ 12/ 13 1022.7F
44100 DUCK FRF   1635      48                N/A     1/ 3
44056 DUCK FRF   1630      49                N/A     2/ 3
OREGON INLET NC  1642   54 50  360/ 12/ 15 1022.5F
HATTERAS NC      1642   54 56   10/ 18/ 20 1021.6F
DIAMOND SHLS NC  1650   57 63   10/ 17/ 21 1021.6F   3/ 6   2/ 9
CAPE LOOKOUT NC  1600   58      40/ 17/ 20 1022.1F
$$




USA.gov is the U.S. government's official web portal to all federal, state and local government web resources and services.